| time (UTC) | temp C | wind direction | speed KPH | gust KPH | rain 1hr cm | rain 24hr cm | rain mn cm | humidity % | barometer mb |
| 20260505003048 | 7 | 0 | 0.0 | 1.6 | 0.00 | 1.80 | 0.00 | 89 | 1014.2 |
| 20260505001551 | 7 | 0 | 0.0 | 0.0 | 0.00 | 1.80 | 0.00 | 89 | 1014.2 |
| 20260504234551 | 7 | 0 | 0.0 | 8.0 | 0.00 | 1.80 | 0.00 | 89 | 1014.1 |
| 20260504233053 | 7 | 0 | 0.0 | 4.8 | 0.00 | 1.80 | 0.00 | 89 | 1014.1 |
| 20260504231549 | 7 | 0 | 0.0 | 1.6 | 0.00 | 1.80 | 0.00 | 89 | 1014.2 |
| 20260504230049 | 7 | 74 | 0.0 | 3.2 | 0.00 | 1.80 | 0.00 | 88 | 1014.1 |
| 20260504224551 | 7 | 0 | 0.0 | 3.2 | 0.00 | 1.80 | 0.00 | 87 | 1014.0 |
| 20260504223049 | 7 | 0 | 0.0 | 9.7 | 0.00 | 1.80 | 0.00 | 86 | 1013.8 |
| 20260504221548 | 7 | 53 | 1.6 | 8.0 | 0.00 | 1.80 | 0.00 | 85 | 1014.0 |
| 20260504220112 | 7 | 115 | 1.6 | 14.5 | 0.00 | 1.80 | 0.00 | 84 | 1013.9 |
| 20260504214557 | 7 | 194 | 3.2 | 12.9 | 0.00 | 1.80 | 1.80 | 86 | 1013.6 |
| 20260504213107 | 7 | 88 | 1.6 | 9.7 | 0.00 | 1.80 | 1.80 | 87 | 1013.7 |
| 20260504211545 | 7 | 66 | 3.2 | 12.9 | 0.08 | 1.80 | 1.80 | 87 | 1013.7 |
| 20260504210044 | 8 | 166 | 3.2 | 12.9 | 0.28 | 1.80 | 1.80 | 88 | 1013.9 |
| 20260504204549 | 8 | 143 | 3.2 | 11.3 | 0.48 | 1.80 | 1.80 | 89 | 1014.6 |
| 20260504203050 | 8 | 34 | 3.2 | 12.9 | 0.64 | 1.78 | 1.78 | 89 | 1014.5 |
| 20260504201548 | 8 | 0 | 0.0 | 3.2 | 0.66 | 1.73 | 1.73 | 89 | 1014.6 |
| 20260504200058 | 8 | 0 | 0.0 | 3.2 | 0.66 | 1.52 | 1.52 | 88 | 1014.6 |
| 20260504194546 | 9 | 0 | 0.0 | 4.8 | 0.51 | 1.45 | 1.30 | 89 | 1014.2 |
| 20260504193048 | 10 | 0 | 0.0 | 6.4 | 0.38 | 1.30 | 1.14 | 89 | 1014.0 |
| 20260504191554 | 10 | 0 | 0.0 | 4.8 | 0.36 | 1.19 | 1.04 | 89 | 1013.8 |
| 20260504190055 | 10 | 199 | 1.6 | 3.2 | 0.23 | 0.99 | 0.84 | 88 | 1013.2 |
| 20260504184604 | 10 | 0 | 0.0 | 3.2 | 0.18 | 0.94 | 0.79 | 88 | 1012.8 |
| 20260504183051 | 10 | 0 | 1.6 | 6.4 | 0.18 | 0.91 | 0.74 | 88 | 1012.3 |
| 20260504181552 | 11 | 0 | 0.0 | 0.0 | 0.13 | 0.84 | 0.69 | 88 | 1012.4 |
| 20260504180052 | 11 | 0 | 0.0 | 0.0 | 0.05 | 0.76 | 0.61 | 88 | 1012.5 |
| 20260504174549 | 11 | 0 | 0.0 | 3.2 | 0.03 | 0.74 | 0.58 | 88 | 1012.4 |
| 20260504173052 | 11 | 0 | 0.0 | 6.4 | 0.00 | 0.74 | 0.56 | 88 | 1012.5 |
| 20260504171548 | 11 | 288 | 1.6 | 4.8 | 0.00 | 0.71 | 0.56 | 88 | 1012.4 |
| 20260504081553 | 11 | 0 | 0.0 | 3.2 | 0.00 | 0.46 | 0.18 | 92 | 1015.1 |
| 20260504044558 | 10 | 0 | 0.0 | 0.0 | 0.00 | 0.28 | 0.00 | 91 | 1015.1 |
| 20260504043055 | 10 | 0 | 0.0 | 0.0 | 0.00 | 0.28 | 0.00 | 91 | 1015.1 |
| 20260504041553 | 10 | 0 | 0.0 | 0.0 | 0.00 | 0.28 | 0.00 | 91 | 1015.1 |
| 20260504034559 | 10 | 0 | 0.0 | 0.0 | 0.00 | 0.28 | 0.00 | 91 | 1015.1 |
| 20260504033125 | 10 | 0 | 0.0 | 0.0 | 0.00 | 0.28 | 0.00 | 91 | 1015.2 |
| 20260504031558 | 10 | 0 | 0.0 | 0.0 | 0.00 | 0.28 | 0.00 | 90 | 1015.3 |
| 20260504030051 | 10 | 0 | 0.0 | 0.0 | 0.00 | 0.28 | 0.00 | 90 | 1015.4 |
| 20260504024550 | 10 | 0 | 0.0 | 0.0 | 0.00 | 0.33 | 0.00 | 90 | 1015.3 |
| 20260504023100 | 10 | 0 | 0.0 | 0.0 | 0.00 | 0.33 | 0.00 | 90 | 1015.4 |
| 20260504021552 | 10 | 0 | 0.0 | 0.0 | 0.00 | 0.33 | 0.00 | 90 | 1015.3 |
| 20260504020057 | 10 | 0 | 0.0 | 0.0 | 0.00 | 0.33 | 0.00 | 90 | 1015.5 |
| 20260504014550 | 10 | 0 | 0.0 | 6.4 | 0.00 | 0.53 | 0.00 | 90 | 1015.6 |
| 20260504013105 | 10 | 0 | 1.6 | 4.8 | 0.00 | 0.53 | 0.00 | 90 | 1015.6 |
| 20260504011551 | 10 | 0 | 0.0 | 0.0 | 0.00 | 0.53 | 0.00 | 90 | 1015.6 |
| 20260504010059 | 10 | 0 | 0.0 | 3.2 | 0.00 | 0.53 | 0.00 | 90 | 1015.6 |
| 20260504004603 | 10 | 0 | 0.0 | 0.0 | 0.00 | 0.74 | 0.00 | 90 | 1015.8 |